Weather in Pokrovsk-Uralskiy

Russia / Sverdlovsk Oblast     60°08′53″N   59°49′34″E
temp.,
°C
wind,
m/s
gust,
m/s
humid.,
%
clouds,
%
prec.,
mm/h
press.,
hPa
HPBL,
m
27 july, tue
tue2723:00+11sw228061 0.0 101037
02:00+10sw2489100 0.0 100873
05:00+12sw259599 0.4 1006188
08:00+14wnw258361 0.6 1005723
11:00+16nw466052 1.1 10051436
14:00+15nw574547 0.0 10071826
17:00+14wnw584794 0.0 10081923
20:00+11wnw486388 0.0 10091267
28 july, wed
wed2823:00+9w3771100 0.0 1008541
02:00+8wsw2483100 0.1 1007390
05:00+7wnw259219 0.6 1007389
08:00+7w258299 0.0 1007640
11:00+8w267684 0.0 1007845
14:00+9wnw387198 0.1 10081202
17:00+10wnw496682 0.1 10081206
20:00+10wnw4963100 0.0 10071234
29 july, thu
thu2923:00+8w3772100 0.0 1007593
02:00+7w2679100 0.1 1007650
05:00+7wsw1291100 0.3 1006134
08:00+7sw1293100 0.1 1006159
11:00+8w1284100 0.3 1006319
14:00+13nw255883 0.3 10061493
17:00+14wnw235344 0.4 10051301
20:00+11w0071100 0.0 100512
30 july, fri
fri3023:00+7w0093100 0.0 100510
02:00+8nw118985 0.1 100513
05:00+7n119298 0.1 100413
08:00+10e1278100 0.0 1004249
11:00+12se1377100 0.2 1003392
14:00+11s1498100 2.0 1001180
17:00+14sw31095100 2.6 999645
20:00+14nw1197100 0.2 99941
31 july, sat
sat3123:00+12ene119996 0.3 100130
02:00+11ene11100100 0.0 100245
05:00+10e119994 0.0 100346
08:00+12se1196100 0.0 1005178
11:00+19ssw126883 0.0 1005785
14:00+22w245446 0.0 10051193
17:00+21wsw3568100 0.3 1005953
20:00+19sw2680100 0.3 1005188